Lid_Strength_Index
7 7 8 8 8 8 8 7 7 6 7 7 7 8 8 8 8 9 10 9 11 14 14 13 12 12 12 11 13 11 10 9 8 11 12 12 13 11 12 11 12 13 15 15 14 16 17 7 8 13 9 7 7 7
7 7 8 8 8 8 8 8 7 6 7 7 7 8 8 7 8 8 11 9 9 12 13 11 10 9 9 9 10 9 10 10 8 9 9 10 11 10 12 15 9 13 12 13 13 13 7 6 7 6 6 7 6 6
6 7 7 8 8 8 8 8 7 6 6 7 7 7 7 7 7 8 9 9 10 13 13 13 12 9 8 8 6 10 8 8 8 6 9 10 12 10 13 12 11 9 8 12 11 8 8 7 5 5 5 5 5 6
5 6 7 7 8 8 8 8 7 6 6 7 7 7 7 7 7 8 9 9 10 12 16 12 9 8 7 7 7 6 7 6 5 5 9 9 11 8 10 10 11 9 9 10 10 8 7 6 6 5 5 6 6 6
5 5 6 7 8 8 7 7 7 6 6 7 7 7 7 7 7 8 8 8 9 12 15 13 9 8 7 6 7 6 7 9 9 8 9 10 8 9 8 9 11 8 10 12 12 8 8 7 5 5 6 7 6 7
5 5 6 6 7 7 7 6 6 6 6 6 7 7 7 7 7 10 11 9 9 10 13 15 9 8 7 7 6 7 6 8 8 8 9 8 6 8 11 12 8 8 7 7 8 6 5 5 6 6 7 7 7 7
4 5 6 6 7 7 7 7 6 6 6 7 7 7 7 7 8 11 11 9 9 9 12 13 12 8 8 7 5 6 6 7 7 8 9 8 8 8 11 13 10 9 8 7 5 5 7 7 9 7 6 7 6 7
4 5 6 6 7 7 7 7 6 6 6 7 7 7 7 7 7 10 8 7 8 10 10 14 12 10 7 8 8 5 7 6 6 7 7 8 8 9 12 10 10 9 8 6 5 5 7 7 7 7 7 7 8 9
4 5 6 6 7 7 7 7 6 6 7 8 8 7 7 9 11 9 6 6 7 10 12 12 13 14 8 8 7 6 6 10 6 8 8 8 10 12 11 11 11 9 8 6 5 6 7 8 8 8 8 8 10 11
5 5 6 6 6 7 7 7 6 7 8 8 8 9 10 9 7 5 8 10 10 10 9 13 10 12 9 9 9 8 7 9 12 9 7 10 11 10 10 10 10 9 7 5 7 9 8 8 9 8 8 10 10 11
4 5 6 6 6 7 7 7 7 8 9 11 12 12 10 8 9 10 12 13 12 13 11 11 11 12 8 11 11 8 10 9 13 11 11 11 13 11 10 10 10 8 7 5 4 7 7 8 8 8 9 10 10 11
5 5 6 6 6 7 7 6 8 10 11 11 11 10 9 10 12 14 14 12 13 14 11 11 10 10 9 8 10 9 11 9 14 8 10 13 11 10 11 10 9 9 8 6 5 5 7 7 7 8 9 10 11 10
5 5 6 6 6 6 6 7 8 9 8 9 11 12 12 12 15 15 16 14 14 11 10 10 12 10 9 9 10 10 12 12 8 10 12 12 10 10 10 10 10 9 8 7 6 6 5 7 7 8 9 9 10 11
5 5 5 6 6 6 6 7 8 8 10 12 12 15 14 15 14 13 14 14 12 11 11 12 12 11 10 10 10 13 10 9 12 15 15 11 11 11 10 10 10 10 8 7 6 6 6 7 8 8 8 8 9 11
5 5 6 6 6 6 7 7 7 8 11 12 12 16 15 12 12 12 12 12 12 10 11 12 11 10 12 12 13 12 13 14 14 15 12 11 11 11 11 10 10 9 8 7 6 6 6 7 7 8 8 8 9 10
5 6 6 6 6 7 7 8 9 10 11 12 12 14 13 13 14 13 13 13 11 11 11 11 12 13 14 13 15 17 15 17 13 12 11 11 11 10 10 9 9 8 8 7 7 6 6 7 7 8 8 8 9 11
6 8 6 6 7 7 8 10 10 12 12 12 13 11 12 13 13 13 11 11 10 11 13 12 14 16 12 15 17 15 15 12 11 10 10 10 10 10 9 9 9 8 8 8 8 7 6 7 6 7 9 9 9 10
9 6 6 7 8 9 10 10 11 12 13 12 13 12 12 12 12 11 10 10 10 12 12 13 12 14 15 17 16 13 11 9 9 9 9 9 9 9 9 9 9 9 9 9 9 8 7 7 8 9 9 8 9 9
7 7 7 8 9 11 13 12 11 13 12 12 12 11 11 11 11 10 11 11 11 11 11 12 14 14 15 12 13 11 10 10 11 9 9 9 9 9 9 9 9 9 9 9 10 9 8 7 8 9 9 9 9 9
7 7 8 8 8 10 11 11 9 12 13 12 11 11 11 12 12 11 11 12 12 12 13 14 13 12 12 11 10 10 10 9 10 10 10 9 8 9 9 9 9 8 9 9 10 10 9 9 8 9 8 9 10 10
8 9 8 9 11 10 11 11 11 11 11 12 11 11 13 12 12 12 13 12 12 14 14 12 12 10 9 9 9 9 9 9 10 10 9 9 8 8 9 9 9 9 10 10 11 11 10 10 9 8 8 8 9 9
10 9 10 10 12 12 11 10 11 10 11 11 11 11 13 13 13 13 12 13 13 13 12 11 11 10 10 10 9 9 9 9 9 8 8 8 9 9 10 9 10 10 10 11 11 11 10 10 10 9 8 7 8 9
10 10 11 11 12 12 12 9 12 12 13 13 11 13 13 13 13 11 14 13 12 11 11 10 9 9 9 9 10 10 10 11 10 9 8 8 9 9 8 9 9 10 11 11 10 11 11 11 10 10 9 7 7 8
8 12 13 14 12 14 11 13 11 12 12 13 13 14 13 13 12 13 14 13 12 11 11 10 10 10 10 10 11 11 11 10 9 8 8 9 10 10 9 9 9 9 10 10 10 11 11 11 11 11 11 10 9 8
14 14 13 15 12 13 14 14 13 13 14 13 14 14 13 12 14 14 14 13 13 12 11 10 10 10 10 10 11 11 11 10 10 9 9 9 10 10 9 9 8 9 10 11 11 11 11 11 11 11 11 11 11 10
16 14 15 14 14 14 13 15 14 13 13 14 13 12 12 12 14 14 12 12 12 11 10 10 10 10 10 9 10 10 10 10 9 9 9 9 9 11 11 11 10 10 9 10 11 12 12 12 12 12 12 12 12 11
17 16 13 11 11 11 12 12 12 12 14 14 13 13 13 14 14 12 12 12 11 10 9 9 9 9 9 10 10 9 9 9 9 8 8 8 8 9 10 11 11 10 9 8 10 11 12 12 13 13 12 12 11 11
14 13 15 13 13 12 13 13 13 14 13 11 11 13 13 13 13 12 11 11 10 9 9 9 8 8 8 9 9 9 8 8 8 8 7 8 8 8 9 9 9 10 9 9 10 10 11 11 12 13 13 13 12 11
14 12 12 14 13 13 13 13 12 11 11 11 12 13 14 14 13 12 11 10 9 9 10 10 9 9 9 9 8 8 8 7 8 10 10 10 10 9 9 9 9 9 8 9 10 10 11 12 12 12 13 12 12 12
14 11 13 13 14 14 12 11 12 12 12 12 13 13 14 14 12 10 10 9 9 9 8 8 9 9 9 9 9 9 8 8 8 8 10 10 10 8 9 9 9 9 8 8 9 9 11 11 11 11 12 12 12 13
11 12 13 13 13 11 12 11 11 12 12 13 12 13 14 13 11 11 11 9 9 9 9 9 9 8 8 8 8 8 9 8 8 8 8 8 8 8 9 9 8 8 8 8 9 9 10 11 11 13 13 13 13 14
12 13 13 14 13 11 10 11 12 13 13 13 13 12 13 12 14 11 10 9 9 9 10 8 8 8 7 7 7 7 8 8 8 8 8 8 8 9 9 9 9 8 8 9 9 9 10 11 12 13 13 15 15 14
13 12 12 12 13 12 11 12 13 14 13 13 13 12 12 12 13 10 8 8 7 8 8 8 7 7 7 7 7 8 8 8 9 10 10 10 11 10 9 9 9 8 9 9 9 10 11 12 13 13 14 15 16 16